HNC weather

Billy Mitchell Airport
Hatteras, North Carolina, United States

Public forecast

Using degrees Fahrenheit for public forecast. Weather courtesy of forecast.io.

Current aviation weather report (METAR) for Billy Mitchell Airport

Retrieved 2019/10/21 20:51 UTC (52 minutes ago):

KHSE 212051Z AUTO VRB04KT 10SM FEW008 OVC013 17/16 A3006 RMK AO2 SLP180 T01670161 52008

Closest aviation forecast (TAF) to Billy Mitchell Airport

Forecast is more than 12 hours old.

Closest forecast is Cherry Point MCAS /Cunningham Field/, 65.2 nm (120.7 km) WSW. Retrieved 2014/07/10 21:49 UTC (5 years ago):

TAF COR KNKT 102100Z 1021/1121 21012G18KT 9999 VCTS SCT015 BKN025CB OVC040 QNH2999INS TEMPO 1021/1101 20020G30KT 2800 TSRA BKN015 OVC025CB FM110200 20010KT 9999 VCTS SCT015 BKN025CB BKN040 QNH3000INS TEMPO 1103/1106 6000 SHRA BKN015 BKN030 BKN050 FM111400 21012KT 9999 VCTS SCT015 BKN025CB OVC040 QNH3005INS TEMPO 1117/1119 20015G22KT 2800 TSRA BKN015 BKN025CB OVC040 T24/1109Z T31/1118Z COR 2340